Regional Weather Roundup
Issued by NWS

Home | Current Version | Previous Version | Graphics & Text | Print | Product List | Glossary On
Versions: 1 2 3 4 5 6 7 8 9 10 11 12 13 14 15 16 17 18 19 20 21 22 23 24 25 26 27
000
ASUS45 KBOU 152007
RWRCO

WEATHER ROUNDUP FOR COLORADO
NATIONAL WEATHER SERVICE DENVER/BOULDER CO
100 PM MST SUN JAN 15 2017

NOTE: "FAIR" INDICATES FEW OR NO CLOUDS BELOW 12000 FEET WITH NO
SIGNIFICANT WEATHER AND/OR OBSTRUCTIONS TO VISIBILITY.

COZ001>005-013-030-031-152100-
...NORTHWEST COLORADO...

CITY           SKY/WX    TMP DP  RH WIND       PRES   REMARKS
CRAIG          CLOUDY    25  20  81 N6        30.01F WCI  18
HAYDEN         CLOUDY    25  19  80 CALM      29.99F
MEEKER         CLOUDY    28  24  85 W10       29.99F WCI  19
MOUNT WERNER   NOT AVBL
STEAMBOAT SPGS CLOUDY    24  22  94 CALM      29.98F
WALDEN           N/A    N/A N/A N/A CALM      30.00F
$$

COZ006>008-011-152100-
...WEST CENTRAL VALLEYS...

CITY           SKY/WX    TMP DP  RH WIND       PRES   REMARKS
GRAND JUNCTION FAIR      44  32  62 VRB3      29.93F
MONTROSE       CLOUDY    38  33  82 E3        29.95F
EAGLE          MOSUNNY   32  27  80 W6        29.98F WCI  26
RIFLE          FAIR      39  30  70 W5        29.93F
DELTA          CLOUDY    40  36  84 CALM      29.95F
NUCLA          CLOUDY    37  34  87 CALM      29.97F
$$

COZ017>023-064>068-152100-
...SOUTHWEST COLORADO...

CITY           SKY/WX    TMP DP  RH WIND       PRES   REMARKS
DURANGO        CLOUDY    42  35  76 SW7       29.87F
CORTEZ         LGT RAIN  40  40 100 W9        29.90F FOG
PAGOSA SPRINGS CLOUDY    38  36  95 S3        29.88F
TELLURIDE      CLOUDY    36  29  76 W8        29.93F
WOLF CREEK PAS CLOUDY    25  25 100 N3        29.99F
$$

COZ009-010-012-014-032>034-037-058>063-152100-
...CENTRAL COLORADO...

CITY           SKY/WX    TMP DP  RH WIND       PRES   REMARKS
ASPEN          MIX PCPN  29  25  85 N5        29.91F WCI  24
BUENA VISTA    CLOUDY    33  27  77 SE3       29.94F
COPPER MTN     CLOUDY    34  23  64 E3        29.99F
BERTHOUD PASS  NOT AVBL
COTTONWOOD PAS CLOUDY    32  27  80 CALM      29.96F
GUNNISON       PTSUNNY   20  18  92 CALM      29.94F
KREMMLING      CLOUDY   N/A N/A N/A CALM      30.01F
LEADVILLE      PTSUNNY   31  22  69 CALM      29.93F
MONARCH PASS   CLOUDY    23  21  93 NE10      30.06F WCI  12
SALIDA         CLOUDY    36  31  81 CALM      30.01F
SUNLIGHT       CLOUDY    28  27  93 NE5       29.99F FOG     WCI  23
WILKERSON PASS LGT SNOW  27  25  93 E3        30.00F VSB 1
$$

COZ069>075-152100-
...SAN LUIS VALLEY/SANGRE DE CRISTO MOUNTAINS...

CITY           SKY/WX    TMP DP  RH WIND       PRES   REMARKS
ALAMOSA        LGT SNOW  32  32 100 CALM      29.88F FOG
LA VETA PASS   NOT AVBL
SAGUACHE       PTSUNNY   34  30  86 CALM      29.89F
$$

COZ035-036-038>040-152100-
...NORTHERN COLORADO FRONT RANGE...

CITY           SKY/WX    TMP DP  RH WIND       PRES   REMARKS
DENVER INTL AP CLOUDY    34  25  69 NW5       29.98F WCI  30
DMNS CITY PARK   N/A     35  25  66 N6        29.99F WCI  30
AURORA         FLURRIES  33  25  72 W3        29.99F
FRONT RANGE AP NOT AVBL
ERIE MUNI ARPT CLOUDY    36  29  77 CALM      29.99F
BOULDER MUN AP CLOUDY    36  28  75 NE3       29.99F
CENTENNIAL     LGT SNOW  33  26  75 CALM      29.98F
BROOMFIELD     CLOUDY    36  28  75 E3        29.99F
FORT COLLINS   CLOUDY    34  27  75 E8        30.00F WCI  27
LONGMONT       CLOUDY    37  29  70 CALM      30.02F
$$

COZ041-046-047-076>085-087-088-152100-
...PIKES PEAK/PALMER DIVIDE AND SOUTHERN FOOTHILLS...

CITY           SKY/WX    TMP DP  RH WIND       PRES   REMARKS
COLO. SPRINGS  LGT SNOW  34  28  79 NW13      29.96F FOG     WCI  25
A. F. ACADEMY  MIX PCPN  32  28  86 N13       29.95F WCI  22
SCHRIEVER AFB  NOT AVBL
ELLICOTT       LGT SNOW N/A N/A N/A NE7       29.95F
FALCON         CLOUDY    34  28  79 N8        29.95F WCI  27
FORT CARSON    CLOUDY    34  30  86 NE10      29.97F FOG     WCI  26
LIMON          CLOUDY    31  29  92 NW8       29.98F FOG     WCI  23
MONUMENT HILL  LGT SNOW  30  27  86 NW12      29.98F WCI  21
TRINIDAD       HVY SNOW  31  29  92 CALM      29.97F VSB<1/4
$$

COZ042>045-048>051-090-091-152100-
...NORTHEAST COLORADO...

CITY           SKY/WX    TMP DP  RH WIND       PRES   REMARKS
GREELEY ARPT   CLOUDY    34  27  75 CALM      30.01F
AKRON          CLOUDY    30  25  81 CALM      30.00F
BURLINGTON     FRZ RAIN  32  29  88 NE3       30.01F
WRAY           NOT AVBL
STERLING       CLOUDY    32  27  80 SE3       30.01F
HOLYOKE        MIX PCPN  34  28  80 CALM      30.05F
FORT MORGAN    CLOUDY    32  26  77 CALM      30.01F
$$

COZ086-089-092>099-152100-
...SOUTHEAST COLORADO...

CITY           SKY/WX    TMP DP  RH WIND       PRES   REMARKS
PUEBLO         CLOUDY    33  30  88 W6        29.98F FOG     WCI  28
LA JUNTA       LGT SNOW  33  30  88 CALM      30.01F VSB 3/4
LAMAR          CLOUDY    32  29  88 E3        30.00F FOG
SPRINGFIELD      N/A     30  30 100 NE6       29.97F WCI  24
$$




USA.gov is the U.S. government's official web portal to all federal, state and local government web resources and services.